When you browse on this site, cookies collect data to enhance your experience and personalize the content and advertising you see.
Visit our Privacy Policy to learn more. By continuing to use the site, you agree to this use of cookies and data.
  • în România
  • Lista ţărilor
  • Pe 7 zile
  • Temperatura apei
  • Meteo pe hartă
  • Widget-uri
  • user-avatar
    Intrare

    Meteo pe oră la Nam Dinh

    Astăzi, 6 Decembrie, Vineri

    Timp Temperatura Precipitaţii Vânt Presiune Umiditate
    00:00 +15°C° 0 mm 5 m/s 770 mmHg 54%
    01:00 +15°C° 0 mm 5 m/s 770 mmHg 57%
    02:00 +14°C° 0 mm 5 m/s 770 mmHg 57%
    03:00 +14°C° 0 mm 6 m/s 770 mmHg 57%
    04:00 +14°C° 0 mm 6 m/s 770 mmHg 57%
    05:00 +14°C° 0 mm 6 m/s 770 mmHg 56%
    06:00 +13°C° 0 mm 6 m/s 771 mmHg 55%
    07:00 +14°C° 0 mm 6 m/s 771 mmHg 55%
    08:00 +15°C° 0 mm 6 m/s 771 mmHg 49%
    09:00 +16°C° 0 mm 7 m/s 771 mmHg 43%
    10:00 +18°C° 0 mm 7 m/s 771 mmHg 37%
    11:00 +20°C° 0 mm 7 m/s 771 mmHg 34%
    12:00 +21°C° 0 mm 7 m/s 770 mmHg 31%
    13:00 +22°C° 0 mm 6 m/s 769 mmHg 27%
    14:00 +22°C° 0 mm 6 m/s 769 mmHg 28%
    15:00 +22°C° 0 mm 6 m/s 768 mmHg 29%
    16:00 +22°C° 0 mm 5 m/s 768 mmHg 29%
    17:00 +20°C° 0 mm 5 m/s 769 mmHg 32%
    18:00 +19°C° 0 mm 5 m/s 769 mmHg 35%
    19:00 +18°C° 0 mm 4 m/s 769 mmHg 38%
    20:00 +17°C° 0 mm 4 m/s 769 mmHg 41%
    21:00 +16°C° 0 mm 3 m/s 770 mmHg 43%
    22:00 +16°C° 0 mm 3 m/s 770 mmHg 46%
    23:00 +14°C° 0 mm 3 m/s 769 mmHg 47%

    Mâine, 7 Decembrie, Sâmbătă

    Timp Temperatura Precipitaţii Vânt Presiune Umiditate
    00:00 +14°C° 0 mm 3 m/s 769 mmHg 48%
    01:00 +13°C° 0 mm 3 m/s 769 mmHg 49%
    02:00 +13°C° 0 mm 3 m/s 769 mmHg 52%
    03:00 +12°C° 0 mm 3 m/s 769 mmHg 54%
    04:00 +12°C° 0 mm 4 m/s 769 mmHg 56%
    05:00 +12°C° 0 mm 4 m/s 769 mmHg 57%
    06:00 +12°C° 0 mm 4 m/s 770 mmHg 59%
    07:00 +12°C° 0 mm 4 m/s 770 mmHg 60%
    08:00 +14°C° 0 mm 4 m/s 770 mmHg 53%
    09:00 +17°C° 0 mm 4 m/s 770 mmHg 46%
    10:00 +19°C° 0 mm 4 m/s 770 mmHg 38%
    11:00 +20°C° 0 mm 4 m/s 770 mmHg 34%
    12:00 +21°C° 0 mm 3 m/s 769 mmHg 29%
    13:00 +22°C° 0 mm 3 m/s 768 mmHg 25%
    14:00 +22°C° 0 mm 3 m/s 768 mmHg 25%
    15:00 +22°C° 0 mm 3 m/s 767 mmHg 26%
    16:00 +22°C° 0 mm 3 m/s 767 mmHg 26%
    17:00 +20°C° 0 mm 3 m/s 768 mmHg 32%
    18:00 +19°C° 0 mm 2 m/s 768 mmHg 37%
    19:00 +17°C° 0 mm 2 m/s 768 mmHg 43%
    20:00 +17°C° 0 mm 2 m/s 768 mmHg 44%
    21:00 +17°C° 0 mm 2 m/s 769 mmHg 44%
    22:00 +16°C° 0 mm 1 m/s 769 mmHg 45%
    23:00 +16°C° 0 mm 1 m/s 769 mmHg 46%

    Poimâine, 8 Decembrie, Duminică

    Timp Temperatura Precipitaţii Vânt Presiune Umiditate
    00:00 +15°C° 0 mm 2 m/s 769 mmHg 47%
    01:00 +15°C° 0 mm 2 m/s 768 mmHg 48%
    02:00 +14°C° 0 mm 2 m/s 768 mmHg 50%
    03:00 +14°C° 0 mm 2 m/s 768 mmHg 51%
    04:00 +13°C° 0 mm 2 m/s 768 mmHg 52%
    05:00 +12°C° 0 mm 3 m/s 768 mmHg 51%
    06:00 +12°C° 0 mm 3 m/s 769 mmHg 51%
    07:00 +11°C° 0 mm 3 m/s 769 mmHg 50%
    08:00 +13°C° 0 mm 3 m/s 769 mmHg 46%
    09:00 +16°C° 0 mm 3 m/s 769 mmHg 41%
    10:00 +18°C° 0 mm 4 m/s 770 mmHg 36%
    11:00 +20°C° 0 mm 3 m/s 769 mmHg 32%
    12:00 +21°C° 0 mm 2 m/s 768 mmHg 28%
    13:00 +23°C° 0 mm 2 m/s 767 mmHg 24%
    14:00 +23°C° 0 mm 2 m/s 766 mmHg 24%
    15:00 +23°C° 0 mm 2 m/s 766 mmHg 24%
    16:00 +23°C° 0 mm 2 m/s 765 mmHg 24%
    17:00 +20°C° 0 mm 2 m/s 766 mmHg 30%
    18:00 +19°C° 0 mm 2 m/s 766 mmHg 36%
    19:00 +17°C° 0 mm 2 m/s 767 mmHg 42%
    20:00 +18°C° 0 mm 1 m/s 767 mmHg 44%
    21:00 +18°C° 0 mm 1 m/s 767 mmHg 47%
    22:00 +16°C° 0 mm 1 m/s 768 mmHg 49%
    23:00 +16°C° 0 mm 1 m/s 767 mmHg 50%

    9 Decembrie, Luni

    Timp Temperatura Precipitaţii Vânt Presiune Umiditate
    00:00 +15°C° 0 mm 1 m/s 767 mmHg 51%
    01:00 +15°C° 0 mm 1 m/s 767 mmHg 52%
    02:00 +15°C° 0 mm 2 m/s 767 mmHg 53%
    03:00 +14°C° 0 mm 2 m/s 767 mmHg 54%
    04:00 +14°C° 0 mm 2 m/s 767 mmHg 54%
    05:00 +12°C° 0 mm 3 m/s 767 mmHg 54%
    06:00 +12°C° 0 mm 3 m/s 767 mmHg 54%
    07:00 +12°C° 0 mm 3 m/s 767 mmHg 54%
    08:00 +14°C° 0 mm 3 m/s 767 mmHg 48%
    09:00 +17°C° 0 mm 4 m/s 767 mmHg 42%
    10:00 +19°C° 0 mm 4 m/s 767 mmHg 36%
    11:00 +20°C° 0 mm 4 m/s 767 mmHg 33%
    12:00 +21°C° 0 mm 3 m/s 766 mmHg 29%
    13:00 +22°C° 0 mm 3 m/s 765 mmHg 25%
    14:00 +22°C° 0 mm 3 m/s 764 mmHg 25%
    15:00 +23°C° 0 mm 2 m/s 764 mmHg 25%
    16:00 +23°C° 0 mm 2 m/s 763 mmHg 25%
    17:00 +22°C° 0 mm 1 m/s 763 mmHg 30%
    18:00 +21°C° 0 mm 1 m/s 764 mmHg 34%
    19:00 +19°C° 0 mm 1 m/s 764 mmHg 39%
    20:00 +19°C° 0 mm 1 m/s 764 mmHg 41%
    21:00 +18°C° 0 mm 1 m/s 764 mmHg 44%
    22:00 +18°C° 0 mm 1 m/s 765 mmHg 47%
    23:00 +16°C° 0 mm 1 m/s 764 mmHg 48%

    10 Decembrie, Marţi

    Timp Temperatura Precipitaţii Vânt Presiune Umiditate
    00:00 +16°C° 0 mm 1 m/s 764 mmHg 50%
    01:00 +15°C° 0 mm 0 m/s 764 mmHg 51%
    02:00 +15°C° 0 mm 1 m/s 764 mmHg 52%
    03:00 +15°C° 0 mm 1 m/s 764 mmHg 53%
    04:00 +14°C° 0 mm 2 m/s 763 mmHg 54%
    05:00 +14°C° 0 mm 2 m/s 764 mmHg 55%
    06:00 +14°C° 0 mm 2 m/s 764 mmHg 57%
    07:00 +13°C° 0 mm 2 m/s 764 mmHg 58%
    08:00 +14°C° 0 mm 3 m/s 764 mmHg 52%
    09:00 +18°C° 0 mm 3 m/s 764 mmHg 45%
    10:00 +20°C° 0 mm 3 m/s 764 mmHg 39%
    11:00 +21°C° 0 mm 3 m/s 764 mmHg 35%
    12:00 +23°C° 0 mm 2 m/s 763 mmHg 30%
    13:00 +24°C° 0 mm 2 m/s 762 mmHg 26%
    14:00 +24°C° 0 mm 2 m/s 762 mmHg 26%
    15:00 +24°C° 0 mm 2 m/s 762 mmHg 26%
    16:00 +24°C° 0 mm 2 m/s 761 mmHg 26%
    17:00 +23°C° 0 mm 2 m/s 762 mmHg 32%
    18:00 +20°C° 0 mm 2 m/s 762 mmHg 39%
    19:00 +19°C° 0 mm 2 m/s 762 mmHg 46%
    20:00 +18°C° 0 mm 2 m/s 763 mmHg 49%
    21:00 +19°C° 0 mm 1 m/s 763 mmHg 52%
    22:00 +18°C° 0 mm 1 m/s 763 mmHg 54%
    23:00 +18°C° 0 mm 1 m/s 763 mmHg 56%

    11 Decembrie, Miercuri

    Timp Temperatura Precipitaţii Vânt Presiune Umiditate
    00:00 +18°C° 0 mm 1 m/s 763 mmHg 57%
    01:00 +16°C° 0 mm 1 m/s 763 mmHg 58%
    02:00 +16°C° 0 mm 1 m/s 763 mmHg 59%
    03:00 +15°C° 0 mm 1 m/s 763 mmHg 60%
    04:00 +15°C° 0 mm 2 m/s 763 mmHg 61%
    05:00 +15°C° 0 mm 2 m/s 763 mmHg 61%
    06:00 +14°C° 0 mm 2 m/s 763 mmHg 61%
    07:00 +14°C° 0 mm 2 m/s 764 mmHg 61%
    08:00 +16°C° 0 mm 3 m/s 764 mmHg 54%
    09:00 +18°C° 0 mm 3 m/s 764 mmHg 48%
    10:00 +21°C° 0 mm 3 m/s 764 mmHg 41%
    11:00 +22°C° 0 mm 3 m/s 763 mmHg 36%
    12:00 +24°C° 0 mm 3 m/s 763 mmHg 32%
    13:00 +25°C° 0 mm 2 m/s 762 mmHg 27%
    14:00 +25°C° 0 mm 2 m/s 762 mmHg 27%
    15:00 +25°C° 0 mm 2 m/s 761 mmHg 27%
    16:00 +25°C° 0 mm 2 m/s 761 mmHg 28%
    17:00 +23°C° 0 mm 2 m/s 762 mmHg 35%
    18:00 +21°C° 0 mm 2 m/s 762 mmHg 42%
    19:00 +19°C° 0 mm 2 m/s 762 mmHg 50%
    20:00 +19°C° 0 mm 2 m/s 763 mmHg 53%
    21:00 +19°C° 0 mm 1 m/s 763 mmHg 56%
    22:00 +19°C° 0 mm 1 m/s 763 mmHg 59%
    23:00 +19°C° 0 mm 1 m/s 763 mmHg 60%
    Arată mai mult